TimeEDT,TemperatureF,Dew PointF,Humidity,Sea Level PressureIn,VisibilityMPH,Wind Direction,Wind SpeedMPH,Gust SpeedMPH,PrecipitationIn,Events,Conditions,WindDirDegrees,DateUTC
12:15 AM,62.6,60.8,94,29.79,8.0,Calm,Calm,-,N/A,,Overcast,0,2013-08-14 04:15:00
12:35 AM,64.4,60.8,88,29.78,10.0,NNW,3.5,-,N/A,,Overcast,330,2013-08-14 04:35:00
12:55 AM,64.4,60.8,88,29.77,10.0,NNW,4.6,-,N/A,,Overcast,330,2013-08-14 04:55:00
1:35 AM,62.6,59.0,88,29.78,10.0,NNW,4.6,-,N/A,,Partly Cloudy,340,2013-08-14 05:35:00
1:55 AM,62.6,57.2,82,29.78,10.0,NNW,5.8,-,N/A,,Partly Cloudy,340,2013-08-14 05:55:00
2:15 AM,62.6,57.2,82,29.78,10.0,NNW,8.1,-,N/A,,Partly Cloudy,330,2013-08-14 06:15:00
2:35 AM,62.6,57.2,82,29.78,10.0,NNW,5.8,-,N/A,,Clear,340,2013-08-14 06:35:00
2:55 AM,62.6,57.2,82,29.78,10.0,North,8.1,-,N/A,,Clear,350,2013-08-14 06:55:00
3:15 AM,60.8,55.4,82,29.78,10.0,North,11.5,-,N/A,,Clear,350,2013-08-14 07:15:00
3:35 AM,60.8,53.6,77,29.78,10.0,NNW,9.2,-,N/A,,Clear,340,2013-08-14 07:35:00
3:55 AM,60.8,53.6,77,29.78,10.0,NNW,10.4,-,N/A,,Scattered Clouds,340,2013-08-14 07:55:00
4:15 AM,59.0,53.6,82,29.79,10.0,NNW,4.6,-,N/A,,Scattered Clouds,340,2013-08-14 08:15:00
4:35 AM,57.2,51.8,82,29.79,10.0,North,4.6,-,N/A,,Clear,350,2013-08-14 08:35:00
4:55 AM,57.2,51.8,82,29.79,10.0,NNW,3.5,-,N/A,,Partly Cloudy,330,2013-08-14 08:55:00
5:15 AM,57.2,51.8,82,29.79,10.0,Calm,Calm,-,N/A,,Mostly Cloudy,0,2013-08-14 09:15:00
5:35 AM,57.2,50.0,77,29.80,10.0,Calm,Calm,-,N/A,,Scattered Clouds,0,2013-08-14 09:35:00
5:45 AM,57.2,50.0,77,29.80,10.0,North,5.8,-,N/A,,Partly Cloudy,350,2013-08-14 09:45:00
6:45 AM,55.4,48.2,77,29.83,10.0,Calm,Calm,-,N/A,,Partly Cloudy,0,2013-08-14 10:45:00
7:45 AM,57.2,51.8,82,29.84,10.0,Calm,Calm,-,N/A,,Partly Cloudy,0,2013-08-14 11:45:00
8:45 AM,60.8,48.2,63,29.84,10.0,NW,8.1,-,N/A,,Partly Cloudy,310,2013-08-14 12:45:00
9:45 AM,60.8,48.2,63,29.85,10.0,WNW,5.8,-,N/A,,Partly Cloudy,300,2013-08-14 13:45:00
10:45 AM,64.4,48.2,56,29.88,10.0,NW,11.5,18.4,N/A,,Scattered Clouds,310,2013-08-14 14:45:00
11:45 AM,64.4,48.2,56,29.86,10.0,WNW,11.5,18.4,N/A,,Scattered Clouds,290,2013-08-14 15:45:00
12:45 PM,66.2,48.2,52,29.87,10.0,NW,11.5,23.0,N/A,,Overcast,320,2013-08-14 16:45:00
1:45 PM,66.2,50.0,56,29.87,10.0,NW,11.5,23.0,N/A,,Overcast,320,2013-08-14 17:45:00
2:45 PM,69.8,51.8,53,29.87,10.0,NNW,11.5,23.0,N/A,,Mostly Cloudy,330,2013-08-14 18:45:00
3:45 PM,69.8,51.8,53,29.87,10.0,NW,8.1,21.9,N/A,,Scattered Clouds,310,2013-08-14 19:45:00
4:45 PM,69.8,50.0,49,29.88,10.0,NW,11.5,23.0,N/A,,Scattered Clouds,310,2013-08-14 20:45:00
5:45 PM,69.8,51.8,53,29.80,10.0,NW,9.2,16.1,N/A,,Scattered Clouds,310,2013-08-14 21:45:00
6:55 PM,68.0,48.2,49,29.92,10.0,NNW,9.2,-,N/A,,Partly Cloudy,340,2013-08-14 22:55:00
7:50 PM,64.4,48.2,56,29.95,10.0,NNW,6.9,-,N/A,,Partly Cloudy,340,2013-08-14 23:50:00
8:45 PM,62.6,48.2,59,29.98,10.0,NNW,5.8,-,N/A,,Clear,340,2013-08-15 00:45:00
8:55 PM,62.6,48.2,59,29.99,10.0,NW,8.1,-,N/A,,Clear,320,2013-08-15 00:55:00
9:15 PM,62.6,48.2,59,30.01,10.0,NNW,4.6,-,N/A,,Clear,330,2013-08-15 01:15:00
9:35 PM,60.8,48.2,63,30.02,10.0,NW,3.5,-,N/A,,Clear,320,2013-08-15 01:35:00
9:55 PM,60.8,48.2,63,30.02,10.0,NNW,4.6,-,N/A,,Clear,330,2013-08-15 01:55:00
10:15 PM,60.8,48.2,63,30.02,10.0,NNW,3.5,-,N/A,,Clear,340,2013-08-15 02:15:00
10:35 PM,59.0,48.2,67,30.03,10.0,NNW,4.6,-,N/A,,Clear,340,2013-08-15 02:35:00
10:55 PM,57.2,48.2,72,30.04,10.0,Calm,Calm,-,N/A,,Clear,0,2013-08-15 02:55:00
11:15 PM,59.0,48.2,67,30.05,10.0,NW,4.6,-,N/A,,Clear,320,2013-08-15 03:15:00
11:35 PM,57.2,48.2,72,30.05,10.0,NNW,4.6,-,N/A,,Clear,330,2013-08-15 03:35:00
11:55 PM,57.2,48.2,72,30.05,10.0,NNW,5.8,-,N/A,,Clear,330,2013-08-15 03:55:00